Time,TemperatureF,DewpointF,PressureIn,WindDirection,WindDirectionDegrees,WindSpeedMPH,WindSpeedGustMPH,Humidity,HourlyPrecipIn,Conditions,Clouds,dailyrainin,SoftwareType,DateUTC
2013-01-18 00:10:00,39.7,22.0,30.27,NNW,346,0.0,-999.0,49,-99.99,,,0.00,weatherlink.com 1.10,2013-01-18 07:10:00,
2013-01-18 00:25:00,39.0,21.0,30.27,NNW,346,0.0,-999.0,49,-99.99,,,0.00,weatherlink.com 1.10,2013-01-18 07:25:00,
2013-01-18 00:40:00,38.2,21.0,30.27,NNW,346,0.0,-999.0,51,-99.99,,,0.00,weatherlink.com 1.10,2013-01-18 07:40:00,
2013-01-18 00:56:00,37.3,21.0,30.27,NNW,346,0.0,-999.0,53,-99.99,,,0.00,weatherlink.com 1.10,2013-01-18 07:56:00,
2013-01-18 01:11:00,36.6,21.0,30.27,NNW,346,0.0,-999.0,53,-99.99,,,0.00,weatherlink.com 1.10,2013-01-18 08:11:00,
2013-01-18 01:26:00,36.5,20.0,30.28,NNW,346,0.0,-999.0,52,-99.99,,,0.00,weatherlink.com 1.10,2013-01-18 08:26:00,
2013-01-18 01:41:00,36.7,20.0,30.28,NNW,346,0.0,-999.0,52,-99.99,,,0.00,weatherlink.com 1.10,2013-01-18 08:41:00,
2013-01-18 01:56:00,36.5,21.0,30.29,NNW,346,0.0,-999.0,54,-99.99,,,0.00,weatherlink.com 1.10,2013-01-18 08:56:00,
2013-01-18 02:11:00,36.0,21.0,30.28,NNW,346,0.0,-999.0,55,-99.99,,,0.00,weatherlink.com 1.10,2013-01-18 09:11:00,
2013-01-18 02:26:00,35.3,21.0,30.28,NNW,346,0.0,-999.0,56,-99.99,,,0.00,weatherlink.com 1.10,2013-01-18 09:26:00,
2013-01-18 02:41:00,35.7,22.0,30.28,NNW,346,0.0,-999.0,57,-99.99,,,0.00,weatherlink.com 1.10,2013-01-18 09:41:00,
2013-01-18 02:56:00,36.1,22.0,30.28,NNW,346,0.0,-999.0,56,-99.99,,,0.00,weatherlink.com 1.10,2013-01-18 09:56:00,
2013-01-18 03:11:00,36.0,21.0,30.27,NNW,346,0.0,-999.0,55,-99.99,,,0.00,weatherlink.com 1.10,2013-01-18 10:11:00,
2013-01-18 03:26:00,34.8,21.0,30.27,NNW,346,0.0,-999.0,58,-99.99,,,0.00,weatherlink.com 1.10,2013-01-18 10:26:00,
2013-01-18 03:41:00,34.5,22.0,30.27,NNW,346,0.0,-999.0,60,-99.99,,,0.00,weatherlink.com 1.10,2013-01-18 10:41:00,
2013-01-18 03:56:00,34.4,21.0,30.27,NNW,346,0.0,-999.0,59,-99.99,,,0.00,weatherlink.com 1.10,2013-01-18 10:56:00,
2013-01-18 04:11:00,34.4,21.0,30.27,NNW,346,0.0,-999.0,59,-99.99,,,0.00,weatherlink.com 1.10,2013-01-18 11:11:00,
2013-01-18 04:26:00,33.9,21.0,30.27,NNW,346,0.0,-999.0,59,-99.99,,,0.00,weatherlink.com 1.10,2013-01-18 11:26:00,
2013-01-18 04:41:00,33.4,21.0,30.27,NNW,346,0.0,-999.0,61,-99.99,,,0.00,weatherlink.com 1.10,2013-01-18 11:41:00,
2013-01-18 04:56:00,33.0,21.0,30.26,NNW,346,0.0,-999.0,62,-99.99,,,0.00,weatherlink.com 1.10,2013-01-18 11:56:00,
2013-01-18 05:11:00,32.7,21.0,30.27,NNW,346,0.0,-999.0,62,-99.99,,,0.00,weatherlink.com 1.10,2013-01-18 12:11:00,
2013-01-18 05:26:00,32.3,21.0,30.27,NNW,346,0.0,-999.0,63,-99.99,,,0.00,weatherlink.com 1.10,2013-01-18 12:26:00,
2013-01-18 05:41:00,32.0,21.0,30.26,NNW,346,0.0,-999.0,63,-99.99,,,0.00,weatherlink.com 1.10,2013-01-18 12:41:00,
2013-01-18 05:56:00,32.1,21.0,30.27,NNW,346,0.0,-999.0,65,-99.99,,,0.00,weatherlink.com 1.10,2013-01-18 12:56:00,
2013-01-18 06:11:00,31.7,21.0,30.27,NNW,346,0.0,-999.0,65,-99.99,,,0.00,weatherlink.com 1.10,2013-01-18 13:11:00,
2013-01-18 06:26:00,31.4,21.0,30.27,NNW,346,0.0,-999.0,66,-99.99,,,0.00,weatherlink.com 1.10,2013-01-18 13:26:00,
2013-01-18 06:40:00,31.2,21.0,30.27,NNW,346,0.0,-999.0,65,-99.99,,,0.00,weatherlink.com 1.10,2013-01-18 13:40:00,
2013-01-18 06:55:00,31.0,21.0,30.28,NNW,346,0.0,-999.0,67,-99.99,,,0.00,weatherlink.com 1.10,2013-01-18 13:55:00,
2013-01-18 07:10:00,31.6,21.0,30.28,NNW,346,0.0,-999.0,65,-99.99,,,0.00,weatherlink.com 1.10,2013-01-18 14:10:00,
2013-01-18 07:25:00,32.8,21.0,30.29,NNW,346,0.0,-999.0,61,-99.99,,,0.00,weatherlink.com 1.10,2013-01-18 14:25:00,
2013-01-18 07:41:00,33.9,20.0,30.29,NNW,346,0.0,-999.0,58,-99.99,,,0.00,weatherlink.com 1.10,2013-01-18 14:41:00,
2013-01-18 07:56:00,34.1,21.0,30.29,NNW,346,0.0,-999.0,58,-99.99,,,0.00,weatherlink.com 1.10,2013-01-18 14:56:00,
2013-01-18 08:11:00,34.4,20.0,30.30,NNW,346,0.0,-999.0,57,-99.99,,,0.00,weatherlink.com 1.10,2013-01-18 15:11:00,
2013-01-18 08:26:00,35.9,21.0,30.30,NNW,346,0.0,-999.0,56,-99.99,,,0.00,weatherlink.com 1.10,2013-01-18 15:26:00,
2013-01-18 08:41:00,38.2,22.0,30.31,NNW,346,0.0,-999.0,53,-99.99,,,0.00,weatherlink.com 1.10,2013-01-18 15:41:00,
2013-01-18 08:56:00,41.7,22.0,30.31,NNW,346,0.0,-999.0,45,-99.99,,,0.00,weatherlink.com 1.10,2013-01-18 15:56:00,
2013-01-18 09:11:00,45.1,21.0,30.32,NNW,346,0.0,-999.0,39,-99.99,,,0.00,weatherlink.com 1.10,2013-01-18 16:11:00,
2013-01-18 09:26:00,47.6,22.0,30.32,NNW,346,1.0,-999.0,36,-99.99,,,0.00,weatherlink.com 1.10,2013-01-18 16:26:00,
2013-01-18 09:42:00,49.1,22.0,30.32,NNW,346,1.0,-999.0,34,-99.99,,,0.00,weatherlink.com 1.10,2013-01-18 16:42:00,
2013-01-18 09:56:00,51.3,22.0,30.32,NNW,346,1.0,-999.0,32,-99.99,,,0.00,weatherlink.com 1.10,2013-01-18 16:56:00,
2013-01-18 10:11:00,53.5,22.0,30.33,NNW,345,3.0,-999.0,29,-99.99,,,0.00,weatherlink.com 1.10,2013-01-18 17:11:00,
2013-01-18 10:26:00,54.9,21.0,30.32,NW,321,2.0,-999.0,27,-99.99,,,0.00,weatherlink.com 1.10,2013-01-18 17:26:00,
2013-01-18 10:41:00,55.5,21.0,30.33,NW,320,1.0,-999.0,26,-99.99,,,0.00,weatherlink.com 1.10,2013-01-18 17:41:00,
2013-01-18 10:57:00,56.4,22.0,30.32,NNW,340,0.0,-999.0,26,-99.99,,,0.00,weatherlink.com 1.10,2013-01-18 17:57:00,
2013-01-18 11:11:00,57.0,21.0,30.32,WNW,300,2.0,-999.0,25,-99.99,,,0.00,weatherlink.com 1.10,2013-01-18 18:11:00,
2013-01-18 11:27:00,59.4,21.0,30.31,NNW,336,5.0,-999.0,23,-99.99,,,0.00,weatherlink.com 1.10,2013-01-18 18:27:00,
2013-01-18 11:41:00,60.4,20.0,30.30,North,355,7.0,-999.0,21,-99.99,,,0.00,weatherlink.com 1.10,2013-01-18 18:41:00,
2013-01-18 11:56:00,61.2,20.0,30.29,NNW,347,7.0,-999.0,20,-99.99,,,0.00,weatherlink.com 1.10,2013-01-18 18:56:00,
2013-01-18 12:11:00,62.1,20.0,30.28,North,5,5.0,-999.0,20,-99.99,,,0.00,weatherlink.com 1.10,2013-01-18 19:11:00,
2013-01-18 12:27:00,62.4,21.0,30.27,NNE,12,5.0,-999.0,20,-99.99,,,0.00,weatherlink.com 1.10,2013-01-18 19:27:00,
2013-01-18 12:41:00,63.1,21.0,30.26,NNW,346,1.0,-999.0,20,-99.99,,,0.00,weatherlink.com 1.10,2013-01-18 19:41:00,
2013-01-18 12:57:00,63.1,20.0,30.25,NW,304,3.0,-999.0,19,-99.99,,,0.00,weatherlink.com 1.10,2013-01-18 19:57:00,
2013-01-18 13:12:00,63.1,20.0,30.24,North,9,5.0,-999.0,19,-99.99,,,0.00,weatherlink.com 1.10,2013-01-18 20:12:00,
2013-01-18 13:26:00,63.2,20.0,30.23,North,355,9.0,-999.0,19,-99.99,,,0.00,weatherlink.com 1.10,2013-01-18 20:26:00,
2013-01-18 13:42:00,63.7,21.0,30.23,NNW,342,6.0,-999.0,19,-99.99,,,0.00,weatherlink.com 1.10,2013-01-18 20:42:00,
2013-01-18 13:57:00,63.8,19.0,30.22,North,355,10.0,-999.0,18,-99.99,,,0.00,weatherlink.com 1.10,2013-01-18 20:57:00,
2013-01-18 14:12:00,64.3,20.0,30.22,North,351,8.0,-999.0,18,-99.99,,,0.00,weatherlink.com 1.10,2013-01-18 21:12:00,
2013-01-18 14:27:00,64.6,20.0,30.21,NNE,21,5.0,-999.0,18,-99.99,,,0.00,weatherlink.com 1.10,2013-01-18 21:27:00,
2013-01-18 14:42:00,64.8,20.0,30.21,North,350,4.0,-999.0,18,-99.99,,,0.00,weatherlink.com 1.10,2013-01-18 21:42:00,
2013-01-18 14:57:00,65.1,20.0,30.21,North,355,0.0,-999.0,18,-99.99,,,0.00,weatherlink.com 1.10,2013-01-18 21:57:00,
2013-01-18 15:12:00,65.9,20.0,30.21,NNW,338,3.0,-999.0,17,-99.99,,,0.00,weatherlink.com 1.10,2013-01-18 22:12:00,
2013-01-18 15:27:00,66.3,20.0,30.20,North,355,3.0,-999.0,17,-99.99,,,0.00,weatherlink.com 1.10,2013-01-18 22:27:00,
2013-01-18 15:42:00,66.6,20.0,30.20,NW,314,2.0,-999.0,17,-99.99,,,0.00,weatherlink.com 1.10,2013-01-18 22:42:00,
2013-01-18 15:57:00,66.6,20.0,30.19,WNW,302,2.0,-999.0,17,-99.99,,,0.00,weatherlink.com 1.10,2013-01-18 22:57:00,
2013-01-18 16:12:00,66.7,20.0,30.19,NW,313,2.0,-999.0,17,-99.99,,,0.00,weatherlink.com 1.10,2013-01-18 23:12:00,
2013-01-18 16:27:00,66.3,20.0,30.19,NNW,333,2.0,-999.0,17,-99.99,,,0.00,weatherlink.com 1.10,2013-01-18 23:27:00,
2013-01-18 16:42:00,66.0,20.0,30.19,NNW,342,4.0,-999.0,17,-99.99,,,0.00,weatherlink.com 1.10,2013-01-18 23:42:00,
2013-01-18 16:57:00,65.8,21.0,30.19,NW,308,3.0,-999.0,18,-99.99,,,0.00,weatherlink.com 1.10,2013-01-18 23:57:00,
2013-01-18 17:12:00,65.3,21.0,30.19,NNW,339,4.0,-999.0,18,-99.99,,,0.00,weatherlink.com 1.10,2013-01-19 00:12:00,
2013-01-18 17:28:00,64.9,20.0,30.19,NNW,339,3.0,-999.0,18,-99.99,,,0.00,weatherlink.com 1.10,2013-01-19 00:28:00,
2013-01-18 17:42:00,63.9,21.0,30.19,NNW,339,2.0,-999.0,19,-99.99,,,0.00,weatherlink.com 1.10,2013-01-19 00:42:00,
2013-01-18 17:57:00,62.4,21.0,30.19,NNW,339,0.0,-999.0,20,-99.99,,,0.00,weatherlink.com 1.10,2013-01-19 00:57:00,
2013-01-18 18:13:00,60.1,22.0,30.20,NNW,339,0.0,-999.0,23,-99.99,,,0.00,weatherlink.com 1.10,2013-01-19 01:13:00,
2013-01-18 18:27:00,56.9,22.0,30.20,NNW,339,0.0,-999.0,26,-99.99,,,0.00,weatherlink.com 1.10,2013-01-19 01:27:00,
2013-01-18 18:42:00,54.6,24.0,30.20,NNW,339,0.0,-999.0,30,-99.99,,,0.00,weatherlink.com 1.10,2013-01-19 01:42:00,
2013-01-18 18:58:00,52.8,24.0,30.20,NNW,339,0.0,-999.0,32,-99.99,,,0.00,weatherlink.com 1.10,2013-01-19 01:58:00,
2013-01-18 19:27:00,49.3,23.0,30.20,NNW,339,0.0,-999.0,36,-99.99,,,0.00,weatherlink.com 1.10,2013-01-19 02:27:00,
2013-01-18 19:42:00,48.0,24.0,30.20,NNW,339,0.0,-999.0,39,-99.99,,,0.00,weatherlink.com 1.10,2013-01-19 02:42:00,
2013-01-18 19:57:00,47.4,24.0,30.21,NNW,339,0.0,-999.0,40,-99.99,,,0.00,weatherlink.com 1.10,2013-01-19 02:57:00,
2013-01-18 20:12:00,46.7,24.0,30.21,NNW,339,0.0,-999.0,41,-99.99,,,0.00,weatherlink.com 1.10,2013-01-19 03:12:00,
2013-01-18 20:27:00,45.9,24.0,30.21,NNW,339,0.0,-999.0,43,-99.99,,,0.00,weatherlink.com 1.10,2013-01-19 03:27:00,
2013-01-18 20:42:00,45.2,24.0,30.22,NNW,339,0.0,-999.0,43,-99.99,,,0.00,weatherlink.com 1.10,2013-01-19 03:42:00,
2013-01-18 20:57:00,44.5,24.0,30.22,NNW,339,0.0,-999.0,45,-99.99,,,0.00,weatherlink.com 1.10,2013-01-19 03:57:00,
2013-01-18 21:12:00,44.2,24.0,30.22,NNW,339,0.0,-999.0,45,-99.99,,,0.00,weatherlink.com 1.10,2013-01-19 04:12:00,
2013-01-18 21:27:00,44.0,24.0,30.22,NNW,339,0.0,-999.0,45,-99.99,,,0.00,weatherlink.com 1.10,2013-01-19 04:27:00,
2013-01-18 21:43:00,43.0,23.0,30.22,NNW,339,0.0,-999.0,45,-99.99,,,0.00,weatherlink.com 1.10,2013-01-19 04:43:00,
2013-01-18 21:58:00,42.7,23.0,30.23,NNW,339,0.0,-999.0,46,-99.99,,,0.00,weatherlink.com 1.10,2013-01-19 04:58:00,
2013-01-18 22:13:00,42.4,24.0,30.23,NNW,339,0.0,-999.0,48,-99.99,,,0.00,weatherlink.com 1.10,2013-01-19 05:13:00,
2013-01-18 22:28:00,42.1,24.0,30.23,NNW,339,0.0,-999.0,48,-99.99,,,0.00,weatherlink.com 1.10,2013-01-19 05:28:00,
2013-01-18 22:43:00,41.2,24.0,30.24,NNW,339,0.0,-999.0,50,-99.99,,,0.00,weatherlink.com 1.10,2013-01-19 05:43:00,
2013-01-18 22:58:00,40.3,23.0,30.24,NNW,339,0.0,-999.0,50,-99.99,,,0.00,weatherlink.com 1.10,2013-01-19 05:58:00,
2013-01-18 23:13:00,39.7,24.0,30.24,NNW,339,0.0,-999.0,53,-99.99,,,0.00,weatherlink.com 1.10,2013-01-19 06:13:00,
2013-01-18 23:28:00,38.8,22.0,30.24,NNW,339,0.0,-999.0,52,-99.99,,,0.00,weatherlink.com 1.10,2013-01-19 06:28:00,
2013-01-18 23:43:00,39.3,24.0,30.24,NNW,339,0.0,-999.0,54,-99.99,,,0.00,weatherlink.com 1.10,2013-01-19 06:43:00,
2013-01-18 23:58:00,39.6,24.0,30.24,NNW,339,0.0,-999.0,53,-99.99,,,0.00,weatherlink.com 1.10,2013-01-19 06:58:00,